www.pogodaiklimat.ru

ПОГОДА в Wyndham Aero

  • Прогноз погоды в Wyndham Aero
  • Монитор погоды в Wyndham Aero
  • Климат города

АРХИВ ПОГОДЫ в Wyndham Aero

Время (UTC), дата Ветер
(напр.,м/с)
 
Видим.   Явления Облачность Т
(С)
Тd
(С)
f
(%)
Тe
(С)
Тes
(С)
Комфортность P
(гПа)
Po
(гПа)
Тmin
(С)
Tmax
(С)
R
(мм)
S
(см)
00 15.01 ЮЗ 2 н/о н/о +29.4 +25.6 80 +43 +43 опасность
перегрева
1009.5 1009.0
01 15.01 штиль 0 н/о н/о +30.1 +25.2 75 +44 +44 опасность
перегрева
1009.0 1008.5 +26.9
02 15.01 З 3 н/о н/о +31.2 +24.8 69 +44 +44 опасность
перегрева
1008.4 1007.9
03 15.01 З 3 н/о н/о +32.4 +23.6 60 +44 +44 опасность
перегрева
1008.0 1007.5
04 15.01 ЮЗ 2 н/о н/о +33.9 +23.9 56 +45 +45 опасность
перегрева
1007.3 1006.8
05 15.01 З 3 н/о н/о +34.7 +21.7 47 +43 +43 опасность
перегрева
1006.2 1005.7
06 15.01 СЗ 3 н/о н/о +35.4 +22.7 48 +45 +45 опасность
перегрева
1005.3 1004.8
07 15.01 СЗ 5 н/о н/о +34.8 +23.2 51 +45 +45 опасность
перегрева
1004.7 1004.2
08 15.01 СЗ 3 н/о н/о +34.3 +23.6 54 +45 +45 опасность
перегрева
1004.6 1004.1
09 15.01 С 4 н/о н/о +33.0 +23.6 58 +44 +44 опасность
перегрева
1004.9 1004.4
10 15.01 С 4 н/о н/о +31.8 +24.1 64 +44 +44 опасность
перегрева
1005.3 1004.8
11 15.01 С 7 н/о н/о +30.2 +25.5 76 +44 +44 опасность
перегрева
1005.8 1005.3
12 15.01 С 5 н/о н/о +30.0 +25.7 78 +45 +45 опасность
перегрева
1006.3 1005.8
13 15.01 С 2 н/о н/о +29.9 +26.1 80 +45 +45 опасность
перегрева
1007.2 1006.7 +36.5
14 15.01 СЗ 3 н/о н/о +29.8 +24.9 75 +43 +43 опасность
перегрева
1007.3 1006.8
15 15.01 СЗ 3 н/о н/о +29.4 +24.9 77 +42 +42 опасность
перегрева
1007.0 1006.5
16 15.01 СЗ 2 н/о н/о +28.8 +25.4 82 +42 +42 опасность
перегрева
1006.6 1006.1
17 15.01 СЗ 3 н/о н/о +28.8 +25.2 81 +42 +42 опасность
перегрева
1006.0 1005.5
18 15.01 СЗ 3 н/о н/о +28.7 +25.3 82 +42 +42 опасность
перегрева
1005.3 1004.8
19 15.01 З 3 н/о н/о +28.7 +25.5 83 +42 +42 опасность
перегрева
1005.2 1004.7
20 15.01 З 6 н/о н/о +29.1 +24.7 77 +41 +41 опасность
перегрева
1005.6 1005.1
21 15.01 З 6 н/о н/о +28.9 +24.7 78 +41 +41 опасность
перегрева
1006.6 1006.1
22 15.01 З 5 н/о н/о +28.5 +24.9 81 +41 +41 опасность
перегрева
1007.4 1006.9
23 15.01 З 4 н/о н/о +28.9 +25.3 81 +42 +42 опасность
перегрева
1008.1 1007.6
00 16.01 З 3 н/о н/о +28.9 +25.1 80 +42 +42 опасность
перегрева
1008.1 1007.6
01 16.01 З 3 н/о н/о +29.3 +24.6 76 +42 +42 опасность
перегрева
1008.1 1007.6 +28.4
02 16.01 З 3 н/о н/о +30.6 +24.0 68 +42 +42 опасность
перегрева
1007.5 1007.0
03 16.01 З 4 н/о н/о +31.2 +24.1 66 +43 +43 опасность
перегрева
1006.7 1006.2
04 16.01 З 4 н/о н/о +31.5 +24.4 66 +44 +44 опасность
перегрева
1006.1 1005.6
05 16.01 З 3 н/о н/о +32.0 +24.1 63 +44 +44 опасность
перегрева
1005.3 1004.8
06 16.01 СЗ 3 н/о н/о +33.2 +24.1 59 +45 +45 опасность
перегрева
1004.7 1004.2
07 16.01 С 3 н/о н/о +31.5 +23.3 62 +42 +42 опасность
перегрева
1004.5 1004.0
08 16.01 Ю 9 н/о н/о +26.8 +22.8 79 +36 +36 очень
душно
1005.1 1004.6
09 16.01 СВ 2 н/о н/о +25.7 +23.2 86 +34 +34 очень
душно
1005.3 1004.8
10 16.01 СВ 3 н/о в посл. час дождь {туман} н/о +25.5 +23.9 91 +35 +35 очень
душно
1006.3 1005.8
11 16.01 В 5 н/о н/о +25.7 +24.1 91 +36 +36 очень
душно
1006.5 1006.0
12 16.01 СВ 4 н/о н/о +25.3 +24.4 95 +35 +35 очень
душно
1007.1 1006.6
13 16.01 В 3 н/о в посл. час дождь {туман} н/о +24.8 +24.5 98 +35 +35 очень
душно
1008.0 1007.5 +33.3
14 16.01 ЮВ 3 н/о н/о +25.5 +25.3 99 +37 +37 очень
душно
1007.8 1007.3
15 16.01 В 3 н/о н/о +25.4 +25.4 100 +37 +37 очень
душно
1006.9 1006.4
16 16.01 СЗ 3 н/о н/о +25.4 +25.4 100 +37 +37 очень
душно
1006.3 1005.8
17 16.01 З 6 н/о н/о +25.5 +25.0 97 +36 +36 очень
душно
1006.8 1006.3
18 16.01 СЗ 7 н/о н/о +24.2 +24.2 100 +33 +33 очень
душно
1006.3 1005.8
19 16.01 С 1 н/о туман местами н/о +24.2 +24.2 100 +33 +33 очень
душно
1005.8 1005.3
20 16.01 З 3 н/о н/о +24.8 +24.8 100 +35 +35 очень
душно
1006.6 1006.1
21 16.01 С 2 н/о н/о +24.6 +24.6 100 +34 +34 очень
душно
1006.9 1006.4
22 16.01 штиль 0 н/о в посл. час дождь {туман} н/о +25.2 +25.2 100 +36 +36 очень
душно
1007.1 1006.6
23 16.01 Ю 3 н/о н/о +26.2 +25.9 98 +39 +39 очень
душно
1007.5 1007.0
00 17.01 штиль 0 н/о н/о +27.9 +25.5 87 +41 +41 опасность
перегрева
1007.9 1007.4
01 17.01 З 3 н/о {туман} н/о +29.2 +26.0 83 +44 +44 опасность
перегрева
1007.8 1007.3 +23.7
02 17.01 штиль 0 н/о н/о +30.2 +25.0 74 +44 +44 опасность
перегрева
1007.5 1007.0
03 17.01 ЮЗ 1 н/о н/о +31.7 +24.8 67 +45 +45 опасность
перегрева
1006.9 1006.4
04 17.01 З 4 н/о н/о +32.9 +24.1 60 +45 +45 опасность
перегрева
1006.2 1005.7
05 17.01 СЗ 2 н/о н/о +33.9 +25.0 60 +48 +48 опасность
перегрева
1004.7 1004.2
06 17.01 СЗ 4 н/о н/о +34.4 +24.3 56 +47 +47 опасность
перегрева
1003.9 1003.4
07 17.01 С 6 н/о н/о +33.2 +25.5 64 +48 +48 опасность
перегрева
1003.3 1002.8

 

Местоположение метеостанции Wyndham Aero (Западная Австралия, Австралия): широта -15.50 долгота 128.15 высота над уровнем моря 4 м.

В архиве по умолчанию представлена погода в Wyndham Aero за последнюю неделю. Архивные данные за месяц целиком и за предыдущие месяцы, начиная с января 2011 года, Вы можете получить, выбрав интересующий диапазон дат из раскрывающегося списка и нажав кнопку "Ввод!".

Внимание! Время в таблицах - всемирное. Для получения местного времени необходимо прибавить поправку, которая в Wyndham Aero равна 8 ч.

Ветер - указаны скорость ветра в м/с - средняя за 10 мин, порывы в срок и между сроками (в фигурных скобках) и направление, откуда дует ветер: С - северный, СВ - северо-восточный, В - восточный, ЮВ - юго-восточный, Ю - южный, ЮЗ - юго-западный, З - западный, СЗ - северо-западный.
Видимость - горизонтальная дальность видимости в метрах или километрах. При видимости от 1 до 10 км при отсутствии осадков обычно наблюдается дымка, при ухудшении видимости до 1 км и менее - туман. В сухую погоду видимость может ухудшаться дымом, пылью или мглою.
Явления - указаны атмосферные явления, наблюдавшиеся в срок или в последний час перед сроком; фигурными скобками обозначены явления, наблюдавшиеся между сроками (за 1-3 часа до срока); квадратными скобками обозначены град или гололедные отложения с указанием их диаметра в мм.
Облачность - указаны через наклонную черту общая и нижняя облачность в баллах и высота нижней границы облаков в метрах; квадратными скобками обозначены формы облаков: Ci - перистые, Cs - перисто-слоистые, Cc - перисто-кучевые, Ac - высококучевые, As - высокослоистые, Sc - слоисто-кучевые, Ns - слоисто-дождевые, Cu - кучевые, Cb - кучево-дождевые. Подробнее классификацию облаков см. в Атласе облаков (PDF).
T - Температура воздуха - температура, измеренная на высоте 2 м над землей.
Td - Температура точки росы - температура, при понижении до которой содержащийся в воздухе водяной пар достигнет насыщения.
f - Относительная влажность воздуха - влажноcть воздуха, измеренная на высоте 2 м над землей.
Te - Эффективная температура - температура, которую ощущает одетый по сезону человек в тени. Характеристика душности погоды. При расчете учитывается влияние влажности воздуха и скорости ветра на теплоощущения человека.
Tes - Эффективная температура на солнце - температура, которую ощущает человек, с поправкой на солнечный нагрев. Характеристика знойности погоды. Зависит от высоты солнца над горизонтом, облачности и скорости ветра. Ночью, в пасмурную погоду, а также при ветре 12 м/с и более поправка равна нулю.
P - Атмосферное давление - приведенное к уровню моря атмосферное давление.
Po - Атмосферное давление - измеренное на уровне метеостанции атмосферное давление.
Tmin - Минимальная температура - минимум температуры воздуха на высоте 2 м над землей.
Tmax - Максимальная температура - максимум температуры воздуха на высоте 2 м над землей.
R - Количество осадков - Количество выпавших осадков, мм. При наведении курсора мыши на число - период времени, за который выпало указанное количество осадков.
S - Снежный покров - Высота снежного покрова, см. При наведении курсора мыши на число - состояние снежного покрова и степень покрытия местности в баллах.